This demonstration page uses our WeatherBlox Daily Observations layout. Learn more.

Left ArrowRight Arrow

53.62937, 11.41316

Hourly Observations for March 18, 2021

Temp ( °F °C ) Dew Point ( °F °C ) Humidity (%) Winds ( mph kmh ) Pressure ( in mb ) Visibility ( mi km ) Precip ( " mm )
7:50 am 07:50 Cloudy with Fog 34 1 34 1 100 100 W 5 7 30.21 1023 0 1 N/A
8:20 am 08:20 Mostly Cloudy with Fog 34 1 34 1 100 100 W 5 7 30.21 1023 0 1 N/A
8:50 am 08:50 Mostly Cloudy with Fog 34 1 34 1 100 100 WNW 5 7 30.21 1023 1 1 N/A
9:20 am 09:20 Cloudy with Mist and Fog 34 1 34 1 100 100 W 3 6 30.21 1023 2 4 N/A
9:50 am 09:50 Cloudy with Mist and Fog 36 2 36 2 100 100 SSW 3 6 30.21 1023 3 5 N/A
10:20 am 10:20 Mostly Cloudy 36 2 36 2 100 100 SSW 5 7 30.21 1023 4 6 N/A
10:50 am 10:50 Mostly Cloudy 37 3 34 1 87 87 VRB 2 4 30.21 1023 30 48 N/A
11:20 am 11:20 Mostly Cloudy 37 3 34 1 87 87 SSW 6 9 30.21 1023 30 48 N/A
11:50 am 11:50 Mostly Cloudy 41 5 36 2 81 81 SSW 7 11 30.18 1022 30 48 N/A
12:20 pm 12:20 Partly Cloudy 41 5 34 1 76 76 SW 7 11 30.18 1022 30 48 N/A
12:50 pm 12:50 Partly Cloudy 41 5 34 1 76 76 SSW 7 11 30.18 1022 30 48 N/A
1:20 pm 13:20 Partly Cloudy 41 5 32 0 70 70 SW 7 11 30.15 1021 30 48 N/A
1:50 pm 13:50 Mostly Cloudy 43 6 34 1 71 71 SW 6 9 30.15 1021 30 48 N/A
2:20 pm 14:20 Partly Cloudy with Light Showers 41 5 34 1 76 76 WSW 5 7 30.15 1021 30 48 N/A
2:50 pm 14:50 Partly Cloudy with Light Showers 39 4 36 2 87 87 WSW 3 6 30.15 1021 30 48 N/A
3:20 pm 15:20 Partly Cloudy with Showers Nearby 39 4 36 2 87 87 VRB 1 2 30.12 1020 30 48 N/A
3:50 pm 15:50 Mostly Sunny 41 5 34 1 76 76 VRB 2 4 30.12 1020 30 48 N/A
4:20 pm 16:20 Mostly Sunny 41 5 32 0 70 70 ENE 6 9 30.12 1020 30 48 N/A
4:50 pm 16:50 Mostly Sunny 41 5 27 -3 57 57 NE 9 15 30.09 1019 30 48 N/A
5:20 pm 17:20 Mostly Sunny 41 5 27 -3 57 57 NNE 8 13 30.09 1019 7 11 N/A
5:50 pm 17:50 Mostly Sunny 39 4 27 -3 61 61 NNE 7 11 30.09 1019 7 11 N/A
6:20 pm 18:20 Mostly Sunny 39 4 27 -3 61 61 N 8 13 30.09 1019 7 11 N/A
6:50 pm 18:50 Mostly Clear 39 4 27 -3 61 61 N 7 11 30.09 1019 7 11 N/A
7:20 pm 19:20 Mostly Clear 37 3 25 -4 60 60 N 7 11 30.12 1020 7 11 N/A
7:50 pm 19:50 Mostly Clear 37 3 25 -4 60 60 N 7 11 30.09 1019 7 11 N/A

Powered by AerisWeather